Avalon, Australia

4:32 PM AEDT on March 24, 2017 (GMT +1100)
Avalon

Weather History for YMAV - April, 2013

Change the Weather History Date:

Tuesday, April 30, 2013

  Actual Average Record
Temperature  
Mean Temperature 51 °F -  
Max Temperature 64 °F - - ()
Min Temperature 38 °F - - ()
Degree Days  
Heating Degree Days 14    
Growing Degree Days 1 (Base 50)    
Moisture  
Dew Point 43 °F    
Average Humidity 73    
Maximum Humidity 100    
Minimum Humidity 38    
Precipitation  
Precipitation 0.00 in - - ()
Sea Level Pressure  
Sea Level Pressure 30.24 in    
Wind  
Wind Speed 5 mph ()    
Max Wind Speed 12 mph    
Max Gust Speed -    
Visibility 6.2 miles    
Events      
T = Trace of Precipitation, MM = Missing Value Source: Averaged Metar Reports

Daily Weather History Graph

Daily Weather History Graph

Search for Another Location

Airport or City:

Trip Planner

Search our weather history database for the weather conditions in past years. The results will help you decide how hot, cold, wet, or windy it might be!

Date:

Astronomy

Apr. 30, 2013 Rise Set
Actual Time 7:02 AM AEST 5:35 PM AEST
Civil Twilight 6:35 AM AEST 6:03 PM AEST
Nautical Twilight 6:03 AM AEST 6:34 PM AEST
Astronomical Twilight 5:33 AM AEST 7:05 PM AEST
Moon 9:48 PM AEST (4/30) 11:24 AM AEST (4/30)
Length of Visible Light 11h 28m
Length of Day
10h 33m
Waning Gibbous, 76% of the Moon is Illuminated
Apr 30
Waning Gibbous
May 2
Last Quarter
May 10
New
May 18
First Quarter
May 25
Full

Hourly Weather History & Observations

Time (AEST) Temp. Windchill Dew Point Humidity Pressure Visibility Wind Dir Wind Speed Gust Speed Precip Events Conditions
12:00 AM 46 °F - 43 °F 85% 30.32 in - WNW 4.6 mph - -  
12:00 AM 46.4 °F 44.3 °F 42.8 °F 87% 30.30 in 6.2 mi WNW 4.6 mph - N/A   Unknown
12:30 AM 46.4 °F - 42.8 °F 87% 30.30 in 6.2 mi Calm Calm - N/A   Unknown
1:00 AM 44.6 °F 43.1 °F 42.8 °F 93% 30.30 in 6.2 mi West 3.5 mph - N/A   Scattered Clouds
1:30 AM 44.6 °F 40.7 °F 42.8 °F 93% 30.30 in 6.2 mi WNW 6.9 mph - N/A   Mostly Cloudy
2:00 AM 44.6 °F 42.2 °F 42.8 °F 93% 30.30 in 6.2 mi WNW 4.6 mph - N/A   Mostly Cloudy
2:30 AM 42.8 °F - 42.8 °F 100% 30.30 in 6.2 mi Calm Calm - N/A   Unknown
3:00 AM 42 °F - 41 °F 94% 30.30 in - NW 1.2 mph - -  
3:00 AM 42.8 °F - 41.0 °F 93% 30.30 in 6.2 mi NW 1.2 mph - N/A   Unknown
3:30 AM 42.8 °F 41.1 °F 41.0 °F 93% 30.27 in 6.2 mi NNW 3.5 mph - N/A   Unknown
4:00 AM 42.8 °F 39.3 °F 41.0 °F 93% 30.27 in 6.2 mi NNW 5.8 mph - N/A   Unknown
4:30 AM 41.0 °F 38.0 °F 41.0 °F 100% 30.27 in 6.2 mi NNW 4.6 mph - N/A   Unknown
5:00 AM 42.8 °F - 41.0 °F 93% 30.27 in 6.2 mi NW 1.2 mph - N/A   Unknown
5:30 AM 39.2 °F 35.0 °F 39.2 °F 100% 30.27 in 6.2 mi NNW 5.8 mph - N/A   Unknown
6:00 AM 39.2 °F 35.0 °F 39.2 °F 100% 30.27 in 6.2 mi WNW 5.8 mph - N/A   Unknown
6:30 AM 39.2 °F 35.0 °F 39.2 °F 100% 30.27 in 6.2 mi NW 5.8 mph - N/A   Unknown
7:00 AM 39.2 °F 35.0 °F 39.2 °F 100% 30.30 in 6.2 mi NW 5.8 mph - N/A   Unknown
7:30 AM 39.2 °F 35.9 °F 37.4 °F 93% 30.30 in 6.2 mi WNW 4.6 mph - N/A   Unknown
8:00 AM 42.8 °F 40.1 °F 42.8 °F 100% 30.30 in 6.2 mi WNW 4.6 mph - N/A   Unknown
8:30 AM 46.4 °F 45.2 °F 44.6 °F 93% 30.30 in 6.2 mi West 3.5 mph - N/A   Unknown
9:00 AM 50 °F - 48 °F 90% 30.32 in - WNW 4.6 mph - -  
9:00 AM 50.0 °F - 48.2 °F 94% 30.30 in 6.2 mi WNW 4.6 mph - N/A   Unknown
9:30 AM 53.6 °F - 48.2 °F 82% 30.30 in 6.2 mi West 3.5 mph - N/A   Unknown
10:00 AM 57.2 °F - 48.2 °F 72% 30.30 in 6.2 mi WSW 2.3 mph - N/A   Unknown
10:30 AM 59.0 °F - 44.6 °F 59% 30.30 in 6.2 mi NNW 3.5 mph - N/A   Unknown
11:00 AM 62.6 °F - 44.6 °F 52% 30.30 in 6.2 mi East 1.2 mph - N/A   Scattered Clouds
11:30 AM 62.6 °F - 44.6 °F 52% 30.27 in 6.2 mi NE 4.6 mph - N/A   Unknown
12:00 PM 64 °F - 46 °F 41% 30.27 in - East 8.1 mph - -  
12:00 PM 64.4 °F - 46.4 °F 52% 30.27 in 6.2 mi East 8.1 mph - N/A   Unknown
12:30 PM 64.4 °F - 46.4 °F 52% 30.24 in 6.2 mi ESE 8.1 mph - N/A   Scattered Clouds
1:00 PM 64.4 °F - 46.4 °F 52% 30.21 in 6.2 mi East 11.5 mph - N/A   Scattered Clouds
1:30 PM 62.6 °F - 44.6 °F 52% 30.21 in 6.2 mi East 11.5 mph - N/A   Mostly Cloudy
2:00 PM 62.6 °F - 44.6 °F 52% 30.21 in 6.2 mi East 11.5 mph - N/A   Overcast
2:30 PM 64.4 °F - 44.6 °F 49% 30.18 in 6.2 mi East 11.5 mph - N/A   Mostly Cloudy
3:00 PM 63 °F - 44 °F 38% 30.22 in - East 9.2 mph - -   Overcast
3:00 PM 62.6 °F - 44.6 °F 52% 30.21 in 6.2 mi East 9.2 mph - N/A   Overcast
3:30 PM 62.6 °F - 42.8 °F 48% 30.21 in 6.2 mi East 10.4 mph - N/A   Overcast
4:00 PM 62.6 °F - 42.8 °F 48% 30.18 in 6.2 mi ENE 9.2 mph - N/A   Overcast
4:30 PM 62.6 °F - 44.6 °F 52% 30.18 in 6.2 mi ENE 9.2 mph - N/A   Overcast
5:00 PM 62.6 °F - 44.6 °F 52% 30.18 in 6.2 mi NE 8.1 mph - N/A   Mostly Cloudy
5:30 PM 59.0 °F - 42.8 °F 55% 30.18 in 6.2 mi NNE 8.1 mph - N/A   Scattered Clouds
6:00 PM 58 °F - 43 °F 46% 30.20 in - NNE 8.1 mph - -  
6:00 PM 59.0 °F - 42.8 °F 55% 30.18 in 6.2 mi NNE 8.1 mph - N/A   Mostly Cloudy
6:30 PM 59.0 °F - 42.8 °F 55% 30.18 in 6.2 mi NNE 9.2 mph - N/A   Mostly Cloudy
7:00 PM 53.6 °F - 41.0 °F 62% 30.18 in 6.2 mi North 6.9 mph - N/A   Scattered Clouds
7:30 PM 53.6 °F - 41.0 °F 62% 30.18 in 6.2 mi North 6.9 mph - N/A   Mostly Cloudy
8:00 PM 50.0 °F - 41.0 °F 71% 30.18 in 6.2 mi ESE 5.8 mph - N/A   Scattered Clouds
8:30 PM 51.8 °F - 42.8 °F 71% 30.18 in 6.2 mi Calm Calm - N/A   Mostly Cloudy
9:00 PM 51 °F - 41 °F 60% 30.21 in - West 1.2 mph - -  
9:00 PM 51.8 °F - 41.0 °F 67% 30.18 in 6.2 mi West 1.2 mph - N/A   Scattered Clouds
9:30 PM 50.0 °F - 41.0 °F 71% 30.18 in 6.2 mi SSE 1.2 mph - N/A   Scattered Clouds
10:00 PM 48.2 °F - 39.2 °F 71% 30.18 in 6.2 mi Calm Calm - N/A   Unknown
10:30 PM 48.2 °F - 39.2 °F 71% 30.18 in 6.2 mi West 4.6 mph - N/A   Unknown
11:00 PM 48.2 °F - 41.0 °F 76% 30.18 in 6.2 mi WNW 4.6 mph - N/A   Mostly Cloudy
11:30 PM 48.2 °F - 41.0 °F 76% 30.18 in 6.2 mi WNW 5.8 mph - N/A   Overcast